Terminal Aerodrome Forecast
Issued by NWS

Home | Current Version | Previous Version | Graphics & Text | Print | Product List | Glossary On
Versions: 1 2 3 4 5 6 7 8 9 10 11 12 13 14 15 16 17 18 19
000
FTUS43 KTOP 271100
TAFMHK
TAF
KMHK 271121Z 2712/2812 07006KT P6SM BKN100
     FM272000 13006KT P6SM OVC060=

USA.gov is the U.S. government's official web portal to all federal, state and local government web resources and services.